Regional Weather Roundup
Issued by NWS

Home | Current Version | Previous Version | Graphics & Text | Print | Product List | Glossary On
Versions: 1 2 3 4 5 6 7 8 9 10 11 12 13 14 15 16 17 18 19 20 21 22 23 24 25 26 27 28 29 30 31 32 33 34 35 36 37 38 39 40 41 42 43 44 45 46 47 48 49 50
000
ASUS43 KMPX 240701
RWRMN
WEATHER ROUNDUP FOR MINNESOTA
NATIONAL WEATHER SERVICE TWIN CITIES/CHANHASSEN MN
100 AM CST FRI FEB 24 2017


NOTE: "FAIR" INDICATES FEW OR NO CLOUDS BELOW 12,000 FEET WITH NO
SIGNIFICANT WEATHER AND/OR OBSTRUCTIONS TO VISIBILITY. N/A MEANS
CURRENT SKY AND/OR WEATHER CONDITIONS ARE NOT AVAILABLE.

MNZ060>063-068>070-240800-
   Twin Cities Metro

CITY           SKY/WX    TMP DP  RH WIND       PRES   REMARKS
TWIN CITIES    CLOUDY    29  20  69 N16G28    29.87F WCI  17
ST PAUL        CLOUDY    29  22  75 NE10G23   29.89F WCI  20
CRYSTAL        CLOUDY    28  16  60 N18G26    29.88F WCI  15
BLAINE         CLOUDY    28  19  69 N16G23    29.89F WCI  17
LAKEVILLE      CLOUDY    28  25  86 NE13G22   29.84F WCI  18
EDEN PRAIRIE   CLOUDY    29  19  66 NE16G30   29.83F WCI  17
SOUTH ST PAUL  CLOUDY    31  23  72 NE12      29.86F WCI  21
LAKE ELMO      CLOUDY    30  23  74 NE16G24   29.88F WCI  19
$$
MNZ001>005-007-008-013>017-022>024-027-028-240800-
   Northwest Minnesota

CITY           SKY/WX    TMP DP  RH WIND       PRES   REMARKS
BEMIDJI        CLOUDY    14   7  75 N7        30.06F WCI   4
HALLOCK        CLEAR     12  10  92 CALM      30.16R
ROSEAU         PTCLDY     9   3  78 CALM      30.14R
WARROAD        CLEAR      9   3  78 CALM      30.13R
THIEF RVR FALL CLEAR     15   8  73 N9        30.15R WCI   3
CROOKSTON      CLEAR     18  12  79 NE7       30.16S WCI   8
FOSSTON        CLOUDY    14   9  79 N13       30.10S WCI   0
DETROIT LAKES  CLOUDY    19  12  73 N12G18    30.05F WCI   7
MOORHEAD       CLOUDY    19  12  73 N17G24    30.11S WCI   4
PARK RAPIDS    CLOUDY    17   7  64 N12G21    30.01F WCI   4
MAHNOMEN       FAIR      17   9  71 NE17      30.08S WCI   1
$$
MNZ006-009>011-018-025>026-240800-
   North Central Minnesota

CITY           SKY/WX    TMP DP  RH WIND       PRES   REMARKS
BAUDETTE       CLEAR      9   4  80 NW8       30.10R WCI  -3
FLAG ISLAND    CLEAR     10   3  72 N5        30.12R WCI   2
INTL FALLS     CLOUDY    10   4  76 NW6       30.07S WCI   0
WASKISH        CLOUDY    12   7  79 N6        30.09S WCI   3
BIG FORK       CLOUDY    14   7  73 NW5       30.05F WCI   6
LONGVILLE      CLOUDY    16  10  79 N9        30.01F WCI   4
GRAND RAPIDS   CLOUDY    16  10  77 N14       30.02F WCI   2
CRANE LAKE     CLOUDY    16   7  67 CALM      30.07S
ORR            CLOUDY    16   9  73 CALM      30.02S
COOK           CLOUDY    16  10  79 CALM      30.03F
WALKER         FAIR      15   7  71 N8        30.03F WCI   4
$$
MNZ012-019>021-037-240800-
   Northeast Minnesota

CITY           SKY/WX    TMP DP  RH WIND       PRES   REMARKS
DULUTH         CLOUDY    20  15  81 N10       29.94F WCI   9
ELY            CLOUDY    16   9  73 CALM      30.01S
HIBBING        CLOUDY    16  10  77 N12       30.00F WCI   3
EVELETH        CLOUDY    19   8  63 N6        30.00F WCI  11
DULUTH HARBOR  MOCLDY    27  18  69 N21       29.99F WCI  13
TWO HARBORS    CLOUDY    25  16  68 N5        29.95F WCI  19
SILVER BAY     CLOUDY    21  16  79 N5        29.97F WCI  15
GRAND MARAIS     N/A     22   8  55 NE6       30.04R WCI  14
G MARAIS ARPRT CLOUDY    14   3  62 N13       29.95F WCI   0
$$
MNZ029>031-032-039>041-046>048-054>057-064-240800-
   West Central Minnesota

CITY           SKY/WX    TMP DP  RH WIND       PRES   REMARKS
FERGUS FALLS   MOCLDY    19  12  73 N16G22    30.07F WCI   5
WHEATON        CLOUDY    21  14  73 N21G28    30.04S WCI   6
MORRIS         CLOUDY    25  19  80 N22       29.97S WCI  10
ALEXANDRIA     CLOUDY    22  16  78 N17G28    29.97R WCI   8
ELBOW LAKE     CLOUDY    21  16  79 NE20G25   29.99F WCI   6
WADENA         CLOUDY    18  12  79 N15G21    29.99S WCI   3
GLENWOOD       CLOUDY    23  18  80 N16G23    29.95R WCI  10
APPLETON       MOCLDY    27  19  74 N18G26    29.95F WCI  13
BENSON         CLOUDY    28  18  64 NE20G26   29.96R WCI  15
ORTONVILLE     CLOUDY    23  18  80 N24       29.97F WCI   7
MADISON        CLOUDY    28  23  80 N20G26    29.94S WCI  15
WILLMAR        FAIR      28  19  69 NE22G33   29.91S WCI  15
$$
MNZ033>034-036-042>043-049>051-058-059-240800-
   Central Minnesota

CITY           SKY/WX    TMP DP  RH WIND       PRES   REMARKS
ST CLOUD       CLOUDY    25  15  66 NE14G23   29.94S WCI  13
SAUK CENTRE    PTSUNNY   24  16  71 N15G23    29.96R WCI  11
PAYNESVILLE    CLOUDY    26  18  71 N21       29.93R WCI  11
AITKIN         CLOUDY    21  12  68 N13G18    29.98S WCI   9
PINE RIVER     CLOUDY    18  10  73 N14       30.04S WCI   4
BRAINERD       CLOUDY    20  11  68 NE16G23   29.98F WCI   6
STAPLES        CLOUDY    19  12  73 N13       29.98F WCI   7
LONG PRAIRIE   MOCLDY    23  18  80 N15G21    29.97R WCI  10
LITTLE FALLS   CLOUDY    23  14  68 N7G20     29.97S WCI  15
LITCHFIELD     CLOUDY    28  19  69 N18       29.90S WCI  16
BUFFALO        CLOUDY    27  19  69 N15       29.91S WCI  16
MAPLE LAKE     CLOUDY    28  21  74 N14G22    29.92S WCI  17
HUTCHINSON     CLOUDY    28  21  74 N18G28    29.88S WCI  16
$$
MNZ037-044-045-052-053-240800-
   East Central Minnesota

CITY           SKY/WX    TMP DP  RH WIND       PRES   REMARKS
PRINCETON      CLOUDY    27  18  69 N14G21    29.92F WCI  15
MORA           CLOUDY    25  16  68 NE7       29.97S WCI  17
CAMBRIDGE      CLOUDY    28  18  64 N14G20    29.90F WCI  17
RUSH CITY      CLOUDY    25  18  74 NE14G21   29.93F WCI  13
MOOSE LAKE     CLOUDY    23  16  74 N10G17    29.94F WCI  12
HINCKLEY       FAIR      27  18  69 N12G18    29.96R WCI  16
CLOQUET        CLOUDY    19  14  79 N8        29.96F WCI   9
MCGREGOR       CLOUDY    21  14  73 N12       29.99F WCI   9
$$
MNZ071>073-080-081-089-090-097-098-240800-
   Southwest Minnesota

CITY           SKY/WX    TMP DP  RH WIND       PRES   REMARKS
MONTEVIDEO     CLOUDY    27  21  80 NE20      29.94F WCI  13
GRANITE FALLS  CLOUDY    30  22  71 N17G25    29.92F WCI  18
CANBY          CLOUDY    28  23  84 N18G24    29.92F WCI  15
MARSHALL       CLOUDY    28  21  75 NE22G29   29.88F WCI  14
REDWOOD FALLS  CLOUDY    29  19  66 NE13G24   29.87S WCI  19
OLIVIA         CLOUDY    30  23  74 N18G24    29.88F WCI  18
PIPESTONE      CLOUDY    27  19  74 NE26G32   29.82R WCI  11
WINDOM         LGT SNOW  27  25  93 N21       29.81S WCI  13
WORTHINGTON    SNOW      25  24  96 N23G32    29.79R VSB 1/2 WCI  10
JACKSON        LGT SNOW  27  27 100 N24       29.77S WCI  12
TRACY          CLOUDY    28  23  81 N23G30    29.86S WCI  14
SLAYTON        CLOUDY    25  22  87 N16G26    29.83R WCI  13
$$
MNZ065>067-074>077-082>085-091>093-240800-
   South Central Minnesota

CITY           SKY/WX    TMP DP  RH WIND       PRES   REMARKS
MANKATO        LGT SNOW  27  25  92 NE20      29.81S FOG     WCI  13
NEW ULM        CLOUDY    28  21  74 NE17G25   29.83F WCI  16
ST JAMES       CLOUDY    27  27 100 N17G23    29.82F WCI  14
FAIRMONT       SNOW      27  26  96 N24       29.75F VSB 1/2 WCI  12
GLENCOE        CLOUDY    29  23  78 N16G25    29.85F WCI  17
FARIBAULT      LGT SNOW  27  27 100 N12G18    29.81F VSB 3/4 WCI  16
OWATONNA         N/A    N/A N/A N/A N21G26    29.77F
WASECA         CLOUDY    28  27  93 N22       29.79S WCI  15
ALBERT LEA     LGT SNOW  28  28 100 N24       29.69F WCI  14
$$
MNZ078>079-086>088-094>096-240800-
   Southeast Minnesota

CITY           SKY/WX    TMP DP  RH WIND       PRES   REMARKS
ROCHESTER      CLOUDY    29  29 100 NE28G36   29.73F FOG     WCI  14
RED WING       SNOW      28  27  93 NE9       29.83F VSB 1/2 WCI  20
STANTON        LGT SNOW  29  27  90 NE16G23   29.81F WCI  18
DODGE CENTER   LGT SNOW  28  27  93 NE24      29.73F WCI  14
WINONA         LGT SNOW  34  32  93 N7        29.80F WCI  28
AUSTIN         CLOUDY    30  28  93 NE21G28   29.66F WCI  17
PRESTON        LGT SNOW  31  29  94 NE20G28   29.70F WCI  18
$$
ABBREVIATIONS USED IN REMARKS
   TC - TEMPERATURES IN CELSIUS
  WCI - WIND CHILL INDEX
   HX - HEAT INDEX
  VSB - VISIBILITY
$$




USA.gov is the U.S. government's official web portal to all federal, state and local government web resources and services.